Regional Weather Roundup
Issued by NWS

Home | Current Version | Previous Version | Graphics & Text | Print | Product List | Glossary Off
Versions: 1 2 3 4 5 6 7 8 9 10 11 12 13 14 15 16 17 18 19 20 21 22 23 24 25 26 27 28 29 30 31 32 33 34 35 36 37 38 39 40 41 42 43 44 45 46 47 48 49 50

000
ASUS43 KMPX 241301
RWRMN
WEATHER ROUNDUP FOR MINNESOTA
NATIONAL WEATHER SERVICE TWIN CITIES/CHANHASSEN MN
800 AM CDT SUN MAY 24 2015


NOTE: "FAIR" INDICATES FEW OR NO CLOUDS BELOW 12,000 FEET WITH NO
SIGNIFICANT WEATHER AND/OR OBSTRUCTIONS TO VISIBILITY. N/A MEANS
CURRENT SKY AND/OR WEATHER CONDITIONS ARE NOT AVAILABLE.

MNZ060>063-068>070-241400-
   Twin Cities Metro

CITY           SKY/WX    TMP DP  RH WIND       PRES   REMARKS
TWIN CITIES    CLOUDY    62  50  64 E6        30.06R
ST PAUL        CLOUDY    61  50  67 SE6       30.06S
CRYSTAL        CLOUDY    63  49  60 E6        30.05R
BLAINE         CLOUDY    63  52  67 SE6       30.06S
LAKEVILLE      CLOUDY    59  52  77 E3        30.06R
EDEN PRAIRIE   CLOUDY    61  50  67 E5        30.04S
SOUTH ST PAUL  CLOUDY    62  49  62 CALM      30.06R
LAKE ELMO      CLOUDY    61  52  72 CALM      30.08R
$$
MNZ001>005-007-008-013>017-022>024-027-028-241400-
   Northwest Minnesota

CITY           SKY/WX    TMP DP  RH WIND       PRES   REMARKS
BEMIDJI        MOSUNNY   57  49  75 CALM      30.11S
HALLOCK        SUNNY     57  48  72 S7        30.08R
ROSEAU         SUNNY     57  50  77 S3        30.08S
WARROAD        SUNNY     59  52  77 CALM      30.08F
THIEF RVR FALL SUNNY     57  46  67 S3        30.11R
CROOKSTON      MOSUNNY   61  48  63 SE3       30.10S
FOSSTON        MOSUNNY   63  55  77 CALM      30.10S
DETROIT LAKES  PTSUNNY   59  48  67 E3        30.08S
MOORHEAD       MOSUNNY   59  50  72 NE5       30.06F
PARK RAPIDS    CLOUDY    59  47  64 NE3       30.08F
MAHNOMEN       CLOUDY    58  49  69 E5        30.09S
$$
MNZ006-009>011-018-025>026-241400-
   North Central Minnesota

CITY           SKY/WX    TMP DP  RH WIND       PRES   REMARKS
BAUDETTE       SUNNY     58  47  66 CALM      30.08F
FLAG ISLAND    SUNNY     63  45  51 W14       30.05F
INTL FALLS     SUNNY     58  46  64 W3        30.09F
WASKISH        MOSUNNY   57  48  72 CALM      30.11S
BIG FORK       MOSUNNY   57  48  72 CALM      30.11F
LONGVILLE      PTSUNNY   57  52  82 CALM      30.10S
GRAND RAPIDS   CLOUDY    55  46  71 CALM      30.11F
CRANE LAKE     SUNNY     55  46  71 CALM      30.12F
COOK           SUNNY     57  46  67 CALM      30.12F
WALKER         FAIR      55  51  86 CALM      30.10S
$$
MNZ012-019>021-037-241400-
   Northeast Minnesota

CITY           SKY/WX    TMP DP  RH WIND       PRES   REMARKS
DULUTH         PTSUNNY   61  47  59 VRB3      30.11F
ELY            SUNNY     59  45  58 CALM      30.11F
HIBBING        MOSUNNY   57  46  66 CALM      30.12S
EVELETH        MOSUNNY   55  48  76 CALM      30.13R
DULUTH HARBOR  PTSUNNY   54  48  82 CALM      30.11F
TWO HARBORS    MOSUNNY   68  52  56 CALM      30.09S
GRAND MARAIS     N/A     45  38  76 SW10      30.08F
G MARAIS ARPRT SUNNY     64  41  42 W5        30.12F
$$
MNZ029>031-032-039>041-046>048-054>057-064-241400-
   West Central Minnesota

CITY           SKY/WX    TMP DP  RH WIND       PRES   REMARKS
FERGUS FALLS   CLOUDY    61  48  63 E5        30.06S
WHEATON        CLOUDY    59  48  67 E6        30.04F
MORRIS         CLOUDY    61  50  67 E10       30.02S
ALEXANDRIA     CLOUDY    59  47  64 E7        30.07R
ELBOW LAKE     CLOUDY    60  48  66 E9        30.04S
WADENA         CLOUDY    57  46  67 E5        30.08R
GLENWOOD       CLOUDY    57  48  72 E6        30.06R
APPLETON       CLOUDY    61  50  67 E9        30.01F
BENSON         CLOUDY    59  48  67 E6        30.03S
ORTONVILLE     CLOUDY    57  52  82 E5        30.02S
MADISON        LGT RAIN  59  54  82 E5        30.01F
WILLMAR        FAIR      61  52  72 E7        30.04F
$$
MNZ033>034-036-042>043-049>051-058-059-241400-
   Central Minnesota

CITY           SKY/WX    TMP DP  RH WIND       PRES   REMARKS
ST CLOUD       CLOUDY    60  48  64 E7        30.06R
SAUK CENTRE    CLOUDY    57  49  74 NE8       30.06S
PAYNESVILLE    CLOUDY    56  48  74 NE5       30.05F
AITKIN         CLOUDY    57  48  72 CALM      30.08S
PINE RIVER     CLOUDY    57  48  72 CALM      30.12S
BRAINERD       CLOUDY    58  49  72 N5        30.09S
STAPLES        DRIZZLE   55  48  76 CALM      30.08R
LONG PRAIRIE   CLOUDY    55  46  71 NE3       30.07S
LITTLE FALLS   CLOUDY    61  45  55 E3        30.07R
LITCHFIELD     DRIZZLE   59  54  82 E3        30.05S
BUFFALO        CLOUDY    59  49  68 CALM      30.06R
MAPLE LAKE     CLOUDY    60  52  74 CALM      30.06R
$$
MNZ037-044-045-052-053-241400-
   East Central Minnesota

CITY           SKY/WX    TMP DP  RH WIND       PRES   REMARKS
PRINCETON      CLOUDY    61  52  72 E3        30.07R
MORA           RAIN      55  46  71 CALM      30.10R
CAMBRIDGE      CLOUDY    63  48  59 E5        30.05S
RUSH CITY      CLOUDY    60  48  64 E3        30.08S
MOOSE LAKE     CLOUDY    57  46  67 CALM      30.09R
HINCKLEY       CLOUDY    59  50  72 E3        30.09S
CLOQUET        PTSUNNY   61  45  55 CALM      30.11S
MCGREGOR       CLOUDY    55  48  76 CALM      30.10S
$$
MNZ071>073-080-081-089-090-097-098-241400-
   Southwest Minnesota

CITY           SKY/WX    TMP DP  RH WIND       PRES   REMARKS
MONTEVIDEO     DRIZZLE   57  54  88 E7        30.02F
GRANITE FALLS  CLOUDY    59  51  74 NE7       30.02F
CANBY          CLOUDY    56  54  93 CALM      30.02S
MARSHALL       CLOUDY    59  52  77 E7        30.00S
REDWOOD FALLS  CLOUDY    60  52  74 E6        30.01S
OLIVIA         CLOUDY    57  46  67 E8        30.02S
PIPESTONE      CLOUDY    59  55  88 E10       29.98S
WINDOM         DRIZZLE   59  55  88 E7        30.00F
WORTHINGTON    CLOUDY    57  54  88 E10       29.98F
JACKSON        CLOUDY    59  57  94 E13       30.00F
TRACY          DRIZZLE   59  57  91 E5        30.00F
SLAYTON        CLOUDY    57  56  96 CALM      30.00F
$$
MNZ065>067-074>077-082>085-091>093-241400-
   South Central Minnesota

CITY           SKY/WX    TMP DP  RH WIND       PRES   REMARKS
MANKATO        CLOUDY    61  54  77 E10       30.03F
NEW ULM        DRIZZLE   61  55  82 SE6       30.02F
ST JAMES       RAIN      61  57  88 E7        30.01F
FAIRMONT       CLOUDY    57  52  82 E12       30.00F
GLENCOE        DRIZZLE   61  54  77 E6        30.03S
FARIBAULT      LGT RAIN  63  54  72 SE6       30.05S
OWATONNA       LGT RAIN  61  52  72 E8        30.04F
WASECA         CLOUDY    59  50  72 SE7       30.05F
ALBERT LEA     RAIN      59  55  88 E6        30.04F
$$
MNZ078>079-086>088-094>096-241400-
   Southeast Minnesota

CITY           SKY/WX    TMP DP  RH WIND       PRES   REMARKS
ROCHESTER      CLOUDY    62  52  69 SE6       30.08F
RED WING       CLOUDY    63  50  63 SE8       30.07R
STANTON        CLOUDY    63  51  65 SE5       30.05R
DODGE CENTER   CLOUDY    63  52  67 SE3       30.06F
WINONA         CLOUDY    61  54  77 CALM      30.09S
AUSTIN         CLOUDY    59  54  82 E6        30.05F
PRESTON        RAIN      59  52  78 SE5       30.09R
$$
ABBREVIATIONS USED IN REMARKS
   TC - TEMPERATURES IN CELSIUS
  WCI - WIND CHILL INDEX
   HX - HEAT INDEX
  VSB - VISIBILITY
$$



USA.gov is the U.S. government's official web portal to all federal, state and local government web resources and services.